This demonstration page uses our WeatherBlox Daily Observations layout. Learn more.

Left ArrowRight Arrow

40.92945, -100.16068

Hourly Observations for January 27, 2021

Temp ( °F °C ) Dew Point ( °F °C ) Humidity (%) Winds ( mph kmh ) Pressure ( in mb ) Visibility ( mi km ) Precip ( " mm )
12:15 am 00:15 Cloudy with Light Snow 16 -9 12 -10.9 86 86 ENE 12 19 30.34 1027 3 4 0.00 0.00
12:35 am 00:35 Cloudy with Light Snow 16 -9.1 12 -10.9 87 87 ENE 7 11 30.35 1028 3 5 0.00 0.00
12:55 am 00:55 Cloudy with Light Snow 16 -9 13 -10.8 87 87 NE 8 13 30.36 1028 4 6 0.00 0.00
1:15 am 01:15 Cloudy with Light Snow 15 -9.3 12 -11.1 87 87 E 7 11 30.36 1028 2 3 0.00 0.00
1:35 am 01:35 Cloudy with Light Snow 15 -9.5 12 -11.3 87 87 ENE 6 9 30.38 1029 2 3 0.00 0.00
1:55 am 01:55 Cloudy with Light Snow 14 -10.1 10 -12 86 86 ENE 5 7 30.38 1029 3 5 0.00 0.00
2:15 am 02:15 Cloudy with Light Snow 13 -10.5 10 -12.3 87 87 E 5 7 30.40 1029 2 3 0.00 0.00
2:35 am 02:35 Cloudy with Light Snow 13 -10.7 10 -12.3 88 88 ENE 3 6 30.41 1030 2 2 0.00 0.00
2:55 am 02:55 Cloudy with Light Snow 12 -11 10 -12.5 89 89 ENE 3 6 30.41 1030 3 4 0.00 0.00
3:15 am 03:15 Cloudy with Light Snow 11 -11.6 9 -12.8 91 91 Calm 30.44 1031 5 8 0.00 0.00
3:35 am 03:35 Cloudy with Light Snow 10 -12.1 8 -13.6 89 89 Calm 30.44 1031 5 8 0.00 0.00
3:55 am 03:55 Cloudy with Light Snow 8 -13.3 5 -15 87 87 N 6 9 30.46 1031 5 8 0.00 0.00
4:15 am 04:15 Cloudy with Light Snow 10 -12.3 7 -13.9 88 88 Calm 30.46 1031 3 5 0.00 0.00
4:35 am 04:35 Cloudy with Light Snow 10 -12.5 7 -14 89 89 NNE 3 6 30.46 1031 4 6 0.01 0.25
4:55 am 04:55 Partly Cloudy with Scattered Snow Showers 9 -12.7 7 -14 90 90 NNE 3 6 30.46 1032 10 16 0.01 0.25
5:15 am 05:15 Clear with Light Snow 5 -15 2 -16.6 88 88 NE 3 6 30.50 1033 10 16 0.00 0.00
5:35 am 05:35 Clear 5 -14.8 3 -16.2 89 89 Calm 30.49 1033 10 16 0.00 0.00
5:55 am 05:55 Clear with Mist and Fog 5 -15 2 -16.5 88 88 Calm 30.50 1033 5 8 0.00 0.00
6:15 am 06:15 Clear 4 -15.6 0 -17.6 85 85 Calm 30.50 1033 7 11 0.00 0.00
6:35 am 06:35 Mostly Cloudy with Freezing Fog 1 -17.4 -3 -19.6 83 83 Calm 30.53 1034 0 0 0.00 0.00
6:55 am 06:55 Mostly Cloudy with Mist and Fog -4 -19.9 -8 -22.3 81 81 NNW 3 6 30.57 1035 1 1 0.00 0.00
7:15 am 07:15 Mostly Cloudy with Mist and Fog -5 -20.6 -9 -22.9 82 82 Calm 30.59 1036 1 2 0.00 0.00
7:35 am 07:35 Cloudy with Freezing Fog -8 -22 -12 -24.6 80 80 Calm 30.60 1036 1 1 0.00 0.00
7:55 am 07:55 Cloudy with Haze -5 -20.6 -10 -23.1 81 81 Calm 30.59 1036 N/A 0.00 0.00
8:15 am 08:15 Cloudy with Haze -8 -22.3 -13 -24.9 79 79 Calm 30.62 1037 N/A 0.00 0.00
8:35 am 08:35 Cloudy with Freezing Fog -1 -18.3 -4 -20 87 87 Calm 30.59 1036 1 1 0.00 0.00
8:55 am 08:55 Mostly Cloudy -5 -20.6 -9 -23 81 81 W 3 6 30.62 1037 7 11 0.00 0.00
9:15 am 09:15 Partly Cloudy -4 -19.9 -8 -22.3 81 81 Calm 30.62 1037 10 16 0.00 0.00
9:35 am 09:35 Sunny -3 -19.2 -7 -21.6 81 81 Calm 30.63 1037 10 16 0.00 0.00
9:55 am 09:55 Sunny 2 -16.8 -2 -19 83 83 W 3 6 30.61 1037 10 16 0.00 0.00
10:15 am 10:15 Sunny 4 -15.8 0 -18 83 83 WNW 3 6 30.61 1036 10 16 0.00 0.00
10:35 am 10:35 Sunny 5 -15.1 1 -17.1 85 85 WNW 5 7 30.61 1037 10 16 0.00 0.00
10:55 am 10:55 Sunny with Light Snow 6 -14.4 2 -16.5 84 84 W 5 7 30.62 1037 7 11 0.00 0.00
11:15 am 11:15 Sunny 7 -13.7 4 -15.6 86 86 NW 5 7 30.61 1037 10 16 0.00 0.00
11:35 am 11:35 Partly Cloudy 8 -13.2 5 -15.1 86 86 Calm 30.61 1037 10 16 0.00 0.00
11:55 am 11:55 Partly Cloudy 10 -12.4 6 -14.2 87 87 Calm 30.60 1036 10 16 0.01 0.25
12:15 pm 12:15 Sunny 11 -11.8 8 -13.6 87 87 Calm 30.58 1036 10 16 0.01 0.25
12:35 pm 12:35 Sunny 12 -11.2 8 -13.1 86 86 Calm 30.57 1035 10 16 0.01 0.25
12:55 pm 12:55 Sunny 13 -10.6 9 -12.7 85 85 Calm 30.55 1035 10 16 0.01 0.25
1:15 pm 13:15 Sunny 17 -8.6 11 -11.7 79 79 Calm 30.53 1034 10 16 0.00 0.00
1:35 pm 13:35 Sunny 17 -8.1 10 -12.2 73 73 Calm 30.52 1034 10 16 0.00 0.00
1:55 pm 13:55 Sunny 18 -7.9 10 -12.1 72 72 Calm 30.52 1034 10 16 0.00 0.00
2:15 pm 14:15 Sunny 19 -7.5 11 -11.6 73 73 SW 7 11 30.51 1033 10 16 0.00 0.00
2:35 pm 14:35 Sunny 19 -7.2 11 -11.7 71 71 SW 3 6 30.49 1033 10 16 0.00 0.00
2:55 pm 14:55 Sunny 19 -7.4 11 -11.5 73 73 SW 5 7 30.49 1033 10 16 0.00 0.00
3:15 pm 15:15 Sunny 19 -7 11 -11.5 71 71 SW 5 7 30.50 1033 10 16 0.00 0.00
3:35 pm 15:35 Sunny 19 -7.3 11 -11.5 72 72 S 3 6 30.50 1033 10 16 0.00 0.00
3:55 pm 15:55 Sunny 18 -8 11 -11.6 76 76 S 6 9 30.50 1033 10 16 0.00 0.00
4:15 pm 16:15 Sunny 18 -7.7 11 -11.6 74 74 S 8 13 30.52 1033 10 16 0.00 0.00
4:35 pm 16:35 Sunny 17 -8.2 11 -11.7 76 76 S 5 7 30.52 1034 10 16 0.00 0.00
4:55 pm 16:55 Sunny 17 -8.3 11 -11.7 77 77 SSE 5 7 30.52 1034 10 16 0.00 0.00
5:15 pm 17:15 Sunny 15 -9.5 9 -12.6 78 78 S 7 11 30.54 1034 10 16 0.00 0.00
5:35 pm 17:35 Sunny 13 -10.5 8 -13.2 81 81 S 7 11 30.55 1034 10 16 0.00 0.00
5:55 pm 17:55 Clear 13 -10.6 8 -13.2 81 81 SSE 7 11 30.55 1035 10 16 0.00 0.00
6:15 pm 18:15 Clear 10 -12 6 -14.5 82 82 S 7 11 30.57 1035 10 16 0.00 0.00
6:35 pm 18:35 Clear 11 -11.4 8 -13.4 85 85 SSE 7 11 30.57 1035 10 16 0.00 0.00
6:55 pm 18:55 Clear 8 -13.5 4 -15.5 85 85 S 6 9 30.60 1036 10 16 0.00 0.00
7:15 pm 19:15 Clear 9 -12.8 6 -14.5 87 87 SSE 7 11 30.58 1036 10 16 0.00 0.00
7:35 pm 19:35 Clear 10 -12 7 -14 85 85 SSE 7 11 30.57 1035 10 16 0.00 0.00
7:55 pm 19:55 Clear 10 -12.5 6 -14.5 85 85 SSE 9 15 30.57 1035 10 16 0.00 0.00
8:15 pm 20:15 Clear 7 -13.8 4 -15.6 86 86 SSE 8 13 30.59 1036 10 16 0.00 0.00
8:35 pm 20:35 Clear 7 -14 4 -15.8 86 86 S 7 11 30.61 1036 10 16 0.00 0.00
8:55 pm 20:55 Clear 5 -15 2 -16.5 88 88 S 8 13 30.62 1037 10 16 0.00 0.00
9:15 pm 21:15 Clear 5 -14.8 2 -16.5 87 87 S 7 11 30.61 1036 10 16 0.00 0.00
9:35 pm 21:35 Clear 6 -14.4 3 -16.1 87 87 S 5 7 30.61 1037 10 16 0.00 0.00
9:55 pm 21:55 Clear 7 -13.7 4 -15.5 86 86 SSE 5 7 30.59 1036 10 16 0.00 0.00
10:15 pm 22:15 Clear 8 -13.5 4 -15.3 86 86 SSE 7 11 30.59 1036 10 16 0.00 0.00
10:35 pm 22:35 Clear 7 -13.8 4 -15.7 86 86 SSE 6 9 30.59 1036 10 16 0.00 0.00
10:55 pm 22:55 Clear 8 -13.5 5 -15.2 87 87 SSE 5 7 30.59 1036 10 16 0.00 0.00
11:15 pm 23:15 Clear 8 -13.5 4 -15.3 86 86 SE 7 11 30.58 1036 10 16 0.00 0.00
11:35 pm 23:35 Clear 8 -13.6 4 -15.4 86 86 SSE 7 11 30.59 1036 7 11 0.00 0.00
11:55 pm 23:55 Clear with Mist and Fog 7 -13.9 4 -15.6 87 87 SE 5 7 30.60 1036 4 6 0.00 0.00

Powered by AerisWeather